Location: Unspecified
(0.0000°N, 0.0000°E)
Time: 02:50:39
(UTC+00:00)

Envisat - Pass Details

Date: 26 February 2021
Orbit: 764 x 766 km, 98.1° (Epoch: 24 February)

Event Time Altitude Azimuth Distance (km) Brightness Sun altitude
Rises 04:56:56 0° 21° (NNE) 3,214 6.4 -18.8°
Reaches altitude 10° 04:59:17 10° 26° (NNE) 2,291 5.7 -18.2°
Maximum altitude 05:04:11 52° 102° (ESE) 941 3.9 -17.0°
Drops below altitude 10° 05:09:07 10° 178° (S) 2,301 5.6 -15.8°
Sets 05:11:28 0° 183° (S) 3,230 6.3 -15.2°
